Weather in Saltykovka

Russia / Moscow Oblast     55°45′45″N   37°55′20″E
В апреле 2022 года жителям России запретили посещать сайт meteo.paraplan.net по решению Генеральной прокуратуры. Аудитория сайта уменьшилась в 10 раз. Владельцы сайта не видят смысла в поддержке погодного сервера в таких условиях. Сайт будет закрыт в октябре.
temp.,
°C
wind,
m/s
gust,
m/s
humid.,
%
clouds,
%
prec.,
mm/h
press.,
hPa
HPBL,
m
4 october, tue
tue400:00+10sse8157992 0.3 10031379
03:00+10sse81577100 0.3 10041352
06:00+10sse81679100 0.0 10051408
09:00+10sse81476100 0.0 10061251
12:00+12sse81666100 0.0 10071670
15:00+8ssw51282100 0.8 1009947
18:00+9sse41178100 0.2 1009767
21:00+8s61176100 0.3 10091112
5 october, wed
wed500:00+7s5984100 0.1 1009971
03:00+7s3789100 0.9 10091081
06:00+7ssw3788100 0.6 10101118
09:00+6sw4687100 0.9 1011860
12:00+7sw2487100 0.6 1012547
15:00+8w357189 0.8 1014993
18:00+6w3678100 0.1 1015644
21:00+6wnw3684100 0.2 1015730
6 october, thu
thu600:00+6w3784100 0.1 1016469
03:00+6w378682 0.1 1017390
06:00+5w25915 0.0 1017202
09:00+6w24815 0.0 1018292
12:00+10wsw24611 0.0 1018754
15:00+12wsw346673 0.0 1017912
18:00+10ssw368271 0.0 1017388
21:00+9ssw3109416 0.0 1016363
7 october, fri
fri700:00+9sw41195100 0.0 1015387
03:00+9wsw4129536 0.0 1015442
06:00+11wnw5118984 0.0 1016706
09:00+11wnw5118059 0.0 1019777
12:00+11wnw61068100 0.0 10211207
15:00+12w5116725 0.0 10221293
18:00+10w410730 0.0 1023655
21:00+9w310800 0.0 1024428
8 october, sat
sat800:00+8wsw38862 0.0 1025259
03:00+7wsw37910 0.0 1024200
06:00+7sw38925 0.0 1025207
09:00+9sw49835 0.0 1024332
12:00+13sw47665 0.0 1023723
15:00+15sw575747 0.0 10211038
18:00+12ssw4107236 0.0 1020548
21:00+10ssw41381100 0.0 1019551